User: anonymous   Login
Location: Fort Frances
(48.6170°N, 93.4170°W)
Time: 13:54:58
(UTC-05:00)
Language:

Iridium 53 - Orbit

View from above orbital plane
View from above orbital plane
View from above satellite
View from above satellite

Ground track
Ground track

The orbit data is extracted from the following two-line orbital elements,

1 25173U 98010E   16275.50666404 -.00000005  00000-0 -87878-5 0  9998
2 25173  86.3923  98.5193 0001916  83.8407 276.3007 14.34216233974692
Epoch (UTC): 01 October 2016 12:09:35
Eccentricity: 0.0001916
inclination: 86.3923°
perigee height: 776 km
apogee height: 779 km
right ascension of ascending node: 98.5193°
argument of perigee: 83.8407°
revolutions per day: 14.34216233
mean anomaly at epoch: 276.3007°
orbit number at epoch: 97469

The dashed part of the orbit path shows where the satellite is in the earth's shadow,  

DLR